Regional Weather Roundup
Issued by NWS Kansas City/Pleasant Hill, MO

Home | Current Version | Previous Version | Text Only | Print | Product List | Glossary On
Versions: 1 2 3 4 5 6 7 8 9 10 11 12 13 14 15 16 17 18 19 20 21 22 23 24 25
000
ASUS43 KEAX 170710
RWREAX

WEATHER ROUNDUP FOR EASTERN KANSAS AND NORTHWEST MISSOURI
NATIONAL WEATHER SERVICE KANSAS CITY/PLEASANT HILL MO
100 AM CST SAT FEB 17 2018

KSZ040-057-103>105-MOZ028-029-037-043-170800-
...KANSAS CITY METROPOLITAN AREA...

CITY           SKY/WX    TMP DP  RH WIND       PRES   REMARKS
K.C. INTL      CLOUDY    29   8  41 SE9       30.12F WCI  20
K.C. DOWNTOWN  CLOUDY    33   7  33 SE8       30.13F WCI  26
LEES SUMMIT    CLOUDY    30   9  41 E6        30.13F WCI  24
OLATHE - IXD   CLOUDY    30  10  43 SE10      30.12F WCI  21
OLATHE - OJC   PTCLDY    29  10  45 SE7       30.12F WCI  22
LAWRENCE       MOCLDY    28  16  60 SE6       30.12F WCI  22

$$

MOZ001>008-011>017-020>025-030>033-038>040-044>046-053-054-170800-
...NORTHERN AND CENTRAL MISSOURI...

CITY           SKY/WX    TMP DP  RH WIND       PRES   REMARKS
ST. JOSEPH     PTCLDY    24  12  60 S7        30.13F WCI  16
MOSBY          PTSUNNY   30   7  37 SE3       30.15F
WARRENSBURG    CLOUDY    30  10  43 E3        30.15F
WHITEMAN AFB   CLOUDY    28  10  45 E6        30.11F WCI  22
CLINTON        CLOUDY    32  16  51 E3        30.15F
SEDALIA        MOCLDY    29  14  53 E5        30.16F WCI  24
WARSAW         NOT AVBL
CHILLICOTHE      N/A     26   5  40 SE6       30.17F WCI  19
KIRKSVILLE     CLOUDY    23  10  57 SE9       30.16F WCI  13

$$

MOZ041-047>049-056>058-063>065-088>090-097-170800-
...EASTERN AND SOUTHERN MISSOURI...

CITY           SKY/WX    TMP DP  RH WIND       PRES   REMARKS
ST. LOUIS INTL CLOUDY    29  21  72 E7        30.23F WCI  22
SPIRIT OF STL  PTCLDY    28  23  81 CALM      30.22F
COLUMBIA       CLOUDY    29  12  49 E7        30.17F WCI  22
JEFFERSON CITY CLOUDY    30  13  49 SE5       30.19F WCI  25
ROLLA          CLOUDY    32  23  69 SE9       30.17F WCI  24
OSAGE BEACH    CLOUDY    31  22  69 E3        30.17F
SPRINGFIELD    CLOUDY    38  26  62 SE10      30.12F WCI  31
BRANSON        CLOUDY    37  28  70 SE8       30.13F WCI  31
JOPLIN         CLOUDY    37  27  67 E6        30.13F WCI  32
WEST PLAINS    CLOUDY    36  29  75 SE8       30.18F WCI  30

$$

IAZ060-094-KSZ022-034>040-054-083-096-NEZ052-066-093-170800-
...KANSAS...SOUTHEAST NEBRASKA AND IOWA...

CITY           SKY/WX    TMP DP  RH WIND       PRES   REMARKS
TOPEKA         MOCLDY    31  16  54 SE7       30.10F WCI  24
MANHATTAN      MOCLDY    28  13  53 CALM      30.07F
EMPORIA        CLOUDY    32  16  51 SE13      30.07F WCI  22
CHANUTE        CLOUDY    35  21  56 SE8       30.11F WCI  29
WICHITA        CLOUDY    36  19  50 S15       30.04F WCI  27
OMAHA          CLOUDY    28  14  55 S14       30.04F WCI  17
LINCOLN        CLOUDY    24  14  65 S8        30.03F WCI  15
FALLS CITY     CLOUDY    26  10  50 S8        30.09F WCI  18
LAMONI         MOCLDY    24   7  48 S8        30.11F WCI  15
DES MOINES     CLOUDY    22  10  60 S9        30.11F WCI  12

$$





USA.gov is the U.S. government's official web portal to all federal, state and local government web resources and services.